RYR5855 EDLV-LIBC

Flight info

Callsign RYR5855
Flight time 2h 13m
Altitude 37000
Route ERKUM1R ERKUM L179 LUSIX DCT ONUNE DCT GMH DCT DODEN DCT TABUM DCT GIGET DCT ABUKA DCT UTABA DCT BEMKI DCT ELMEM DCT GIRIS DCT SUMIR DCT CHI DCT ARDAM DCT BELOV DCT EKMIL DCT GOSEB DCT GALTI DCT EVINO DCT ARBUM
Aircraft B738/M-SDE3FGILRWY/SB1

Departure

Time 2026-04-27 07:10
Airport Weeze (Niederrhein) Airport (EDLV)

Arrival

Time 2026-04-27 09:23
Airport Crotone Sant'Anna Pythagoras Airport (LIBC)
Time Latitude Longitude Altitude Speed Heading
2026-04-27 06:52 51.59995 6.14862 112 ft 0 kts 89°
2026-04-27 07:03 51.59995 6.14854 112 ft 4 kts 91°
2026-04-27 07:04 51.59997 6.14811 111 ft 4 kts 95°
2026-04-27 07:04 51.59998 6.14803 110 ft 1 kts 94°
2026-04-27 07:06 51.59998 6.14806 111 ft 2 kts 83°
2026-04-27 07:07 51.60016 6.14813 110 ft 4 kts
2026-04-27 07:07 51.60044 6.14855 111 ft 10 kts 88°
2026-04-27 07:07 51.60040 6.15044 112 ft 19 kts 92°
2026-04-27 07:07 51.60035 6.15250 113 ft 18 kts 92°
2026-04-27 07:08 51.60030 6.15446 116 ft 16 kts 92°
2026-04-27 07:08 51.60027 6.15623 114 ft 16 kts 91°
2026-04-27 07:08 51.60024 6.15794 116 ft 15 kts 93°
2026-04-27 07:08 51.60048 6.15939 113 ft 14 kts 25°
2026-04-27 07:09 51.60151 6.15952 113 ft 16 kts
2026-04-27 07:09 51.60206 6.15927 112 ft 6 kts 281°
2026-04-27 07:09 51.60211 6.15842 115 ft 20 kts 272°
2026-04-27 07:09 51.60225 6.15187 114 ft 97 kts 271°
2026-04-27 07:10 51.60259 6.13724 136 ft 159 kts 273°
2026-04-27 07:10 51.60325 6.11892 775 ft 169 kts 281°
2026-04-27 07:10 51.60732 6.10111 1668 ft 170 kts 306°
2026-04-27 07:10 51.61542 6.08774 2517 ft 170 kts 330°
2026-04-27 07:11 51.62650 6.08243 3276 ft 167 kts
2026-04-27 07:11 51.63703 6.09019 3850 ft 178 kts 51°
2026-04-27 07:11 51.64131 6.10909 4455 ft 192 kts 88°
2026-04-27 07:11 51.63809 6.13059 4978 ft 207 kts 117°
2026-04-27 07:12 51.63103 6.15212 5390 ft 224 kts 111°
2026-04-27 07:12 51.62486 6.17584 5891 ft 242 kts 111°
2026-04-27 07:12 51.61836 6.20255 6239 ft 267 kts 110°
2026-04-27 07:12 51.61147 6.23081 7034 ft 275 kts 111°
2026-04-27 07:13 51.60409 6.25958 7856 ft 281 kts 117°
2026-04-27 07:13 51.59304 6.28588 8715 ft 286 kts 129°
2026-04-27 07:13 51.58002 6.31049 9546 ft 292 kts 132°
2026-04-27 07:13 51.56642 6.33503 10426 ft 295 kts 132°
2026-04-27 07:14 51.55242 6.36025 10922 ft 313 kts 132°
2026-04-27 07:14 51.53734 6.38750 11172 ft 338 kts 131°
2026-04-27 07:14 51.52180 6.41600 11768 ft 348 kts 131°
2026-04-27 07:14 51.50558 6.44602 12523 ft 354 kts 131°
2026-04-27 07:15 51.48942 6.47607 13357 ft 358 kts 131°
2026-04-27 07:15 51.47314 6.50649 14129 ft 363 kts 131°
2026-04-27 07:15 51.45682 6.53703 14791 ft 368 kts 131°
2026-04-27 07:15 51.44008 6.56835 15503 ft 372 kts 131°
2026-04-27 07:16 51.42315 6.60000 16207 ft 376 kts 131°
2026-04-27 07:16 51.40598 6.63207 16874 ft 381 kts 131°
2026-04-27 07:16 51.38862 6.66447 17562 ft 386 kts 132°
2026-04-27 07:16 51.37109 6.69720 18272 ft 390 kts 132°
2026-04-27 07:17 51.35334 6.73030 18908 ft 394 kts 132°
2026-04-27 07:17 51.33556 6.76340 19478 ft 398 kts 132°
2026-04-27 07:17 51.31742 6.79714 20065 ft 402 kts 132°
2026-04-27 07:17 51.29913 6.83111 20651 ft 405 kts 133°
2026-04-27 07:18 51.28061 6.86545 21225 ft 409 kts 132°
2026-04-27 07:18 51.26195 6.89999 21770 ft 413 kts 133°
2026-04-27 07:18 51.24306 6.93492 22329 ft 417 kts 133°
2026-04-27 07:18 51.22400 6.97014 22886 ft 421 kts 132°
2026-04-27 07:19 51.20478 7.00557 23424 ft 425 kts 133°
2026-04-27 07:19 51.18536 7.04133 23934 ft 429 kts 133°
2026-04-27 07:19 51.16575 7.07739 24374 ft 432 kts 133°
2026-04-27 07:19 51.14599 7.11368 24827 ft 435 kts 133°
2026-04-27 07:20 51.12612 7.15012 25263 ft 438 kts 133°
2026-04-27 07:20 51.10608 7.18681 25685 ft 441 kts 133°
2026-04-27 07:20 51.08590 7.22370 26128 ft 443 kts 133°
2026-04-27 07:20 51.06558 7.26080 26543 ft 446 kts 133°
2026-04-27 07:21 51.04513 7.29809 26951 ft 449 kts 133°
2026-04-27 07:21 51.02479 7.33511 27338 ft 452 kts 133°
2026-04-27 07:21 51.00404 7.37283 27719 ft 455 kts 133°
2026-04-27 07:21 50.98313 7.41078 28103 ft 458 kts 133°
2026-04-27 07:22 50.96207 7.44895 28498 ft 461 kts 133°
2026-04-27 07:22 50.94093 7.48722 28868 ft 463 kts 133°
2026-04-27 07:22 50.91958 7.52578 29229 ft 466 kts 133°
2026-04-27 07:22 50.89815 7.56446 29574 ft 469 kts 133°
2026-04-27 07:23 50.87655 7.60338 29912 ft 472 kts 133°
2026-04-27 07:23 50.85482 7.64246 30249 ft 474 kts 133°
2026-04-27 07:23 50.83297 7.68169 30530 ft 477 kts 133°
2026-04-27 07:23 50.81100 7.72111 30796 ft 479 kts 133°
2026-04-27 07:24 50.78888 7.76072 31073 ft 481 kts 133°
2026-04-27 07:24 50.76670 7.80037 31377 ft 482 kts 133°
2026-04-27 07:24 50.74451 7.83999 31760 ft 481 kts 133°
2026-04-27 07:24 50.72235 7.87949 32167 ft 480 kts 133°
2026-04-27 07:25 50.70025 7.91883 32532 ft 479 kts 133°
2026-04-27 07:25 50.67812 7.95816 32867 ft 479 kts 133°
2026-04-27 07:25 50.65599 7.99744 33213 ft 479 kts 133°
2026-04-27 07:25 50.63386 8.03665 33572 ft 478 kts 133°
2026-04-27 07:26 50.61154 8.07540 33915 ft 477 kts 136°
2026-04-27 07:26 50.58677 8.10998 34222 ft 475 kts 146°
2026-04-27 07:26 50.55933 8.13860 34514 ft 473 kts 150°
2026-04-27 07:26 50.53144 8.16594 34801 ft 472 kts 150°
2026-04-27 07:27 50.50352 8.19314 35063 ft 472 kts 150°
2026-04-27 07:27 50.47568 8.22049 35345 ft 472 kts 150°
2026-04-27 07:27 50.44796 8.24802 35625 ft 471 kts 150°
2026-04-27 07:27 50.42035 8.27563 35873 ft 471 kts 150°
2026-04-27 07:28 50.39273 8.30334 36124 ft 471 kts 150°
2026-04-27 07:28 50.36506 8.33107 36282 ft 473 kts 150°
2026-04-27 07:28 50.33813 8.35800 36246 ft 477 kts 150°
2026-04-27 07:29 50.28137 8.41105 36229 ft 471 kts 159°
2026-04-27 07:29 50.22057 8.44565 36239 ft 464 kts 164°
2026-04-27 07:30 50.15947 8.47795 36267 ft 463 kts 164°
2026-04-27 07:30 50.09855 8.51085 36268 ft 463 kts 163°
2026-04-27 07:31 50.03779 8.54407 36271 ft 463 kts 163°
2026-04-27 07:31 49.97734 8.57714 36267 ft 464 kts 163°
2026-04-27 07:32 49.91640 8.61036 36268 ft 465 kts 163°
2026-04-27 07:32 49.85529 8.64355 36266 ft 466 kts 163°
2026-04-27 07:33 49.79402 8.67676 36252 ft 467 kts 163°
2026-04-27 07:33 49.73253 8.70932 36246 ft 466 kts 168°
2026-04-27 07:34 49.66888 8.72093 36242 ft 459 kts 186°
2026-04-27 07:34 49.60601 8.70857 36254 ft 455 kts 192°
2026-04-27 07:35 49.54325 8.69474 36258 ft 456 kts 191°
2026-04-27 07:35 49.47987 8.68716 36258 ft 461 kts 179°
2026-04-27 07:36 49.41695 8.70857 36249 ft 469 kts 160°
2026-04-27 07:36 49.35708 8.74851 36256 ft 469 kts 158°
2026-04-27 07:37 49.29749 8.78922 36240 ft 469 kts 158°
2026-04-27 07:37 49.23764 8.82925 36231 ft 469 kts 159°
2026-04-27 07:38 49.17761 8.86877 36224 ft 469 kts 159°
2026-04-27 07:38 49.11760 8.90803 36213 ft 469 kts 159°
2026-04-27 07:39 49.05801 8.94694 36214 ft 469 kts 159°
2026-04-27 07:39 48.99796 8.98606 36211 ft 469 kts 159°
2026-04-27 07:40 48.93801 9.02504 36213 ft 469 kts 159°
2026-04-27 07:40 48.87805 9.06391 36210 ft 468 kts 159°
2026-04-27 07:41 48.81809 9.10269 36209 ft 468 kts 159°
2026-04-27 07:41 48.75813 9.14136 36209 ft 468 kts 159°
2026-04-27 07:42 48.69823 9.17989 36209 ft 468 kts 159°
2026-04-27 07:42 48.63825 9.21838 36210 ft 468 kts 159°
2026-04-27 07:43 48.57837 9.25670 36209 ft 467 kts 159°
2026-04-27 07:43 48.51850 9.29491 36212 ft 467 kts 159°
2026-04-27 07:44 48.45857 9.33308 36202 ft 467 kts 159°
2026-04-27 07:44 48.39867 9.37112 36204 ft 467 kts 159°
2026-04-27 07:45 48.33877 9.40908 36203 ft 467 kts 158°
2026-04-27 07:45 48.27887 9.44697 36201 ft 467 kts 157°
2026-04-27 07:46 48.22359 9.49798 36216 ft 468 kts 141°
2026-04-27 07:46 48.17393 9.56006 36218 ft 468 kts 140°
2026-04-27 07:47 48.12394 9.62273 36234 ft 468 kts 140°
2026-04-27 07:47 48.07366 9.68475 36232 ft 469 kts 141°
2026-04-27 07:48 48.05084 9.71268 36229 ft 469 kts 141°
2026-04-27 07:48 48.00064 9.77388 36231 ft 469 kts 141°
2026-04-27 07:49 47.95009 9.83536 36221 ft 469 kts 141°
2026-04-27 07:49 47.89952 9.89672 36213 ft 469 kts 141°
2026-04-27 07:50 47.84895 9.95794 36215 ft 468 kts 141°
2026-04-27 07:50 47.79839 10.01899 36207 ft 468 kts 141°
2026-04-27 07:51 47.74784 10.07988 36206 ft 467 kts 141°
2026-04-27 07:51 47.69735 10.14052 36202 ft 467 kts 141°
2026-04-27 07:52 47.64688 10.20102 36195 ft 466 kts 141°
2026-04-27 07:52 47.59649 10.26127 36191 ft 465 kts 141°
2026-04-27 07:53 47.54546 10.32044 36458 ft 466 kts 145°
2026-04-27 07:53 47.51864 10.34719 36829 ft 463 kts 147°
2026-04-27 07:53 47.49159 10.37307 37107 ft 463 kts 147°
2026-04-27 07:53 47.46485 10.39842 37346 ft 463 kts 147°
2026-04-27 07:54 47.43780 10.42422 37633 ft 462 kts 147°
2026-04-27 07:54 47.41089 10.45011 37915 ft 462 kts 147°
2026-04-27 07:54 47.38402 10.47611 38159 ft 462 kts 147°
2026-04-27 07:55 47.32985 10.52863 38212 ft 468 kts 147°
2026-04-27 07:55 47.27482 10.57903 38179 ft 462 kts 155°
2026-04-27 07:56 47.21608 10.61556 38207 ft 458 kts 159°
2026-04-27 07:56 47.15689 10.65065 38211 ft 459 kts 159°
2026-04-27 07:57 47.09768 10.68634 38228 ft 461 kts 158°
2026-04-27 07:57 47.03847 10.72242 38242 ft 461 kts 158°
2026-04-27 07:58 46.97908 10.75860 38251 ft 462 kts 158°
2026-04-27 07:58 46.91956 10.79477 38229 ft 464 kts 158°
2026-04-27 07:59 46.86002 10.83083 38237 ft 463 kts 158°
2026-04-27 07:59 46.77071 10.88492 38252 ft 464 kts 156°
2026-04-27 08:00 46.71281 10.92661 38239 ft 465 kts 153°
2026-04-27 08:00 46.65570 10.97050 38228 ft 463 kts 152°
2026-04-27 08:01 46.59872 11.01405 38214 ft 462 kts 153°
2026-04-27 08:01 46.54171 11.05701 38203 ft 461 kts 153°
2026-04-27 08:02 46.48468 11.09963 38174 ft 461 kts 153°
2026-04-27 08:02 46.42810 11.14177 38263 ft 460 kts 153°
2026-04-27 08:03 46.37121 11.18405 38267 ft 459 kts 153°
2026-04-27 08:03 46.31436 11.22621 38269 ft 459 kts 153°
2026-04-27 08:04 46.25754 11.26826 38259 ft 459 kts 153°
2026-04-27 08:04 46.20068 11.31024 38258 ft 459 kts 153°
2026-04-27 08:05 46.14385 11.35210 38246 ft 459 kts 153°
2026-04-27 08:05 46.08695 11.39391 38222 ft 459 kts 153°
2026-04-27 08:06 46.03006 11.43562 38218 ft 458 kts 153°
2026-04-27 08:06 45.97316 11.47725 38206 ft 459 kts 153°
2026-04-27 08:07 45.91617 11.51884 38210 ft 460 kts 153°
2026-04-27 08:07 45.85902 11.56044 38209 ft 461 kts 153°
2026-04-27 08:08 45.80175 11.60204 38171 ft 462 kts 153°
2026-04-27 08:08 45.74441 11.64359 38177 ft 462 kts 153°
2026-04-27 08:09 45.68701 11.68510 38159 ft 462 kts 153°
2026-04-27 08:09 45.62957 11.72653 38154 ft 462 kts 153°
2026-04-27 08:10 45.57219 11.76782 38161 ft 462 kts 153°
2026-04-27 08:10 45.51477 11.80906 38158 ft 461 kts 153°
2026-04-27 08:11 45.45748 11.85010 38159 ft 461 kts 153°
2026-04-27 08:11 45.40062 11.89073 38158 ft 460 kts 153°
2026-04-27 08:12 45.34347 11.93149 38160 ft 459 kts 153°
2026-04-27 08:12 45.28637 11.97212 38165 ft 459 kts 153°
2026-04-27 08:13 45.22932 12.01262 38155 ft 458 kts 153°
2026-04-27 08:13 45.17230 12.05301 38156 ft 458 kts 153°
2026-04-27 08:14 45.11524 12.09333 38166 ft 458 kts 153°
2026-04-27 08:14 45.05819 12.13356 38162 ft 458 kts 153°
2026-04-27 08:15 45.00104 12.17376 38157 ft 459 kts 153°
2026-04-27 08:15 44.94387 12.21389 38164 ft 459 kts 153°
2026-04-27 08:16 44.88667 12.25395 38162 ft 459 kts 154°
2026-04-27 08:16 44.82975 12.29374 38148 ft 460 kts 154°
2026-04-27 08:17 44.77247 12.33368 38153 ft 460 kts 154°
2026-04-27 08:17 44.71512 12.37358 38156 ft 459 kts 154°
2026-04-27 08:18 44.65779 12.41337 38143 ft 459 kts 154°
2026-04-27 08:18 44.60044 12.45310 38143 ft 459 kts 154°
2026-04-27 08:19 44.54318 12.49267 38154 ft 459 kts 154°
2026-04-27 08:19 44.48593 12.53215 38151 ft 458 kts 154°
2026-04-27 08:20 44.42869 12.57153 38149 ft 458 kts 154°
2026-04-27 08:20 44.37148 12.61082 38158 ft 458 kts 154°
2026-04-27 08:21 44.31429 12.65000 38156 ft 458 kts 154°
2026-04-27 08:21 44.25714 12.68906 38142 ft 457 kts 154°
2026-04-27 08:22 44.19998 12.72805 38138 ft 457 kts 154°
2026-04-27 08:22 44.14278 12.76698 38136 ft 457 kts 154°
2026-04-27 08:23 44.08562 12.80580 38135 ft 457 kts 155°
2026-04-27 08:23 44.02885 12.84427 38135 ft 457 kts 155°
2026-04-27 08:24 43.97167 12.88294 38136 ft 457 kts 155°
2026-04-27 08:24 43.91449 12.92152 38144 ft 457 kts 155°
2026-04-27 08:25 43.85729 12.96004 38140 ft 457 kts 155°
2026-04-27 08:25 43.80001 12.99852 38145 ft 457 kts 155°
2026-04-27 08:26 43.74273 13.03692 38145 ft 458 kts 155°
2026-04-27 08:26 43.68538 13.07529 38141 ft 458 kts 155°
2026-04-27 08:27 43.62800 13.11360 38139 ft 458 kts 156°
2026-04-27 08:27 43.57060 13.15183 38139 ft 458 kts 156°
2026-04-27 08:28 43.51323 13.18997 38131 ft 458 kts 156°
2026-04-27 08:28 43.45584 13.22804 38138 ft 458 kts 156°
2026-04-27 08:29 43.39846 13.26602 38139 ft 457 kts 156°
2026-04-27 08:29 43.34115 13.30388 38143 ft 457 kts 156°
2026-04-27 08:30 43.28385 13.34165 38153 ft 457 kts 156°
2026-04-27 08:30 43.22658 13.37931 38151 ft 456 kts 156°
2026-04-27 08:31 43.16930 13.41691 38151 ft 456 kts 156°
2026-04-27 08:31 43.11241 13.45418 38155 ft 456 kts 157°
2026-04-27 08:32 43.05514 13.49161 38155 ft 456 kts 157°
2026-04-27 08:32 42.99783 13.52899 38151 ft 456 kts 157°
2026-04-27 08:33 42.94053 13.56629 38158 ft 456 kts 157°
2026-04-27 08:33 42.88323 13.60352 38158 ft 456 kts 157°
2026-04-27 08:34 42.82594 13.64065 38151 ft 456 kts 157°
2026-04-27 08:34 42.76868 13.67769 38156 ft 456 kts 157°
2026-04-27 08:35 42.71141 13.71466 38154 ft 456 kts 157°
2026-04-27 08:35 42.65414 13.75157 38157 ft 456 kts 157°
2026-04-27 08:36 42.59683 13.78841 38162 ft 455 kts 157°
2026-04-27 08:36 42.53951 13.82519 38149 ft 456 kts 157°
2026-04-27 08:37 42.49187 13.85570 38159 ft 456 kts 157°
2026-04-27 08:37 42.43456 13.89234 38150 ft 455 kts 157°
2026-04-27 08:38 42.37730 13.92887 38152 ft 455 kts 158°
2026-04-27 08:38 42.32007 13.96531 38156 ft 454 kts 158°
2026-04-27 08:39 42.26290 14.00163 38154 ft 454 kts 158°
2026-04-27 08:39 42.20580 14.03783 38163 ft 453 kts 158°
2026-04-27 08:40 42.14869 14.07397 38158 ft 454 kts 158°
2026-04-27 08:40 42.09147 14.11011 38160 ft 454 kts 158°
2026-04-27 08:41 42.03428 14.14615 38160 ft 454 kts 158°
2026-04-27 08:41 41.97703 14.18216 38156 ft 454 kts 158°
2026-04-27 08:42 41.91987 14.21805 38150 ft 453 kts 158°
2026-04-27 08:42 41.86278 14.25383 38156 ft 452 kts 158°
2026-04-27 08:43 41.80579 14.28946 38142 ft 451 kts 158°
2026-04-27 08:43 41.74928 14.32472 38154 ft 450 kts 158°
2026-04-27 08:44 41.69257 14.36005 38156 ft 449 kts 158°
2026-04-27 08:44 41.63591 14.39527 38157 ft 449 kts 158°
2026-04-27 08:45 41.57929 14.43039 38156 ft 448 kts 158°
2026-04-27 08:45 41.52271 14.46543 38164 ft 448 kts 158°
2026-04-27 08:46 41.46608 14.50043 38165 ft 449 kts 158°
2026-04-27 08:46 41.40935 14.53542 38164 ft 450 kts 158°
2026-04-27 08:47 41.35248 14.57043 38160 ft 451 kts 158°
2026-04-27 08:47 41.29549 14.60544 38160 ft 452 kts 158°
2026-04-27 08:48 41.23831 14.64051 38172 ft 452 kts 158°
2026-04-27 08:48 41.18390 14.68252 38177 ft 457 kts 141°
2026-04-27 08:49 41.13597 14.73801 38168 ft 458 kts 140°
2026-04-27 08:49 41.08799 14.79373 38160 ft 458 kts 141°
2026-04-27 08:50 41.03975 14.84909 38147 ft 459 kts 141°
2026-04-27 08:50 40.99141 14.90413 38170 ft 458 kts 141°
2026-04-27 08:51 40.94300 14.95906 38169 ft 458 kts 141°
2026-04-27 08:51 40.89498 15.01344 38164 ft 457 kts 141°
2026-04-27 08:52 40.84672 15.06800 38170 ft 457 kts 141°
2026-04-27 08:52 40.79844 15.12248 38167 ft 457 kts 141°
2026-04-27 08:53 40.77412 15.14988 37844 ft 461 kts 141°
2026-04-27 08:53 40.74976 15.17730 37599 ft 459 kts 141°
2026-04-27 08:53 40.72558 15.20450 37284 ft 454 kts 141°
2026-04-27 08:53 40.70170 15.23134 37047 ft 449 kts 141°
2026-04-27 08:54 40.67801 15.25794 36771 ft 447 kts 141°
2026-04-27 08:54 40.65439 15.28443 36518 ft 445 kts 141°
2026-04-27 08:54 40.63085 15.31079 36262 ft 443 kts 141°
2026-04-27 08:54 40.60749 15.33693 35981 ft 439 kts 141°
2026-04-27 08:55 40.58436 15.36280 35630 ft 434 kts 141°
2026-04-27 08:55 40.56143 15.38841 35242 ft 431 kts 141°
2026-04-27 08:55 40.53864 15.41385 34863 ft 428 kts 141°
2026-04-27 08:55 40.51600 15.43909 34484 ft 425 kts 141°
2026-04-27 08:56 40.49351 15.46414 34107 ft 423 kts 141°
2026-04-27 08:56 40.47113 15.48904 33663 ft 420 kts 141°
2026-04-27 08:56 40.44890 15.51376 33265 ft 417 kts 141°
2026-04-27 08:56 40.42683 15.53827 32881 ft 414 kts 141°
2026-04-27 08:57 40.38322 15.58666 32142 ft 408 kts 141°
2026-04-27 08:57 40.36160 15.61061 31775 ft 405 kts 141°
2026-04-27 08:57 40.34017 15.63433 31411 ft 402 kts 141°
2026-04-27 08:58 40.31883 15.65794 31050 ft 400 kts 141°
2026-04-27 08:58 40.29760 15.68140 30697 ft 398 kts 141°
2026-04-27 08:58 40.27651 15.70469 30339 ft 396 kts 141°
2026-04-27 08:58 40.25548 15.72788 29934 ft 394 kts 141°
2026-04-27 08:59 40.23457 15.75093 29541 ft 391 kts 141°
2026-04-27 08:59 40.21383 15.77377 29164 ft 388 kts 141°
2026-04-27 08:59 40.19356 15.79609 28797 ft 385 kts 141°
2026-04-27 08:59 40.17287 15.81884 28421 ft 382 kts 141°
2026-04-27 09:00 40.15288 15.84080 28052 ft 380 kts 141°
2026-04-27 09:00 40.13270 15.86296 27687 ft 377 kts 141°
2026-04-27 09:00 40.11270 15.88489 27320 ft 374 kts 141°
2026-04-27 09:00 40.09282 15.90668 26961 ft 372 kts 141°
2026-04-27 09:01 40.07305 15.92833 26607 ft 370 kts 141°
2026-04-27 09:01 40.05338 15.94985 26247 ft 368 kts 141°
2026-04-27 09:01 40.03378 15.97129 25887 ft 367 kts 140°
2026-04-27 09:01 40.01423 15.99265 25530 ft 365 kts 140°
2026-04-27 09:02 39.99482 16.01384 25182 ft 363 kts 140°
2026-04-27 09:02 39.97546 16.03496 24826 ft 362 kts 140°
2026-04-27 09:02 39.95618 16.05598 24480 ft 361 kts 140°
2026-04-27 09:02 39.93690 16.07698 24125 ft 360 kts 140°
2026-04-27 09:03 39.91764 16.09794 23763 ft 361 kts 140°
2026-04-27 09:03 39.89838 16.11888 23331 ft 361 kts 140°
2026-04-27 09:03 39.87918 16.13974 22958 ft 359 kts 140°
2026-04-27 09:03 39.86009 16.16049 22599 ft 357 kts 140°
2026-04-27 09:04 39.84110 16.18110 22229 ft 355 kts 140°
2026-04-27 09:04 39.82221 16.20158 21888 ft 352 kts 140°
2026-04-27 09:04 39.80347 16.22190 21538 ft 350 kts 140°
2026-04-27 09:04 39.78481 16.24211 21195 ft 348 kts 140°
2026-04-27 09:05 39.76624 16.26220 20845 ft 346 kts 140°
2026-04-27 09:05 39.74778 16.28216 20509 ft 345 kts 141°
2026-04-27 09:05 39.72935 16.30208 20179 ft 344 kts 141°
2026-04-27 09:05 39.71102 16.32187 19835 ft 343 kts 141°
2026-04-27 09:06 39.69269 16.34165 19489 ft 342 kts 141°
2026-04-27 09:06 39.67446 16.36130 19153 ft 341 kts 141°
2026-04-27 09:06 39.65625 16.38092 18817 ft 339 kts 141°
2026-04-27 09:06 39.63814 16.40042 18408 ft 337 kts 141°
2026-04-27 09:07 39.62016 16.41976 17840 ft 334 kts 141°
2026-04-27 09:07 39.60235 16.43892 17296 ft 331 kts 141°
2026-04-27 09:07 39.58467 16.45791 16760 ft 329 kts 141°
2026-04-27 09:07 39.56714 16.47673 16230 ft 326 kts 141°
2026-04-27 09:08 39.54975 16.49541 15712 ft 324 kts 141°
2026-04-27 09:08 39.53248 16.51392 15197 ft 321 kts 141°
2026-04-27 09:08 39.51536 16.53226 14709 ft 318 kts 141°
2026-04-27 09:08 39.49835 16.55046 14205 ft 316 kts 141°
2026-04-27 09:09 39.48144 16.56853 13678 ft 314 kts 141°
2026-04-27 09:09 39.46465 16.58650 13443 ft 311 kts 141°
2026-04-27 09:09 39.44810 16.60426 13156 ft 307 kts 141°
2026-04-27 09:09 39.43169 16.62176 12838 ft 305 kts 141°
2026-04-27 09:10 39.41525 16.63927 12478 ft 307 kts 141°
2026-04-27 09:10 39.39872 16.65693 12095 ft 309 kts 141°
2026-04-27 09:10 39.38211 16.67464 11723 ft 310 kts 141°
2026-04-27 09:10 39.36546 16.69236 11337 ft 311 kts 141°
2026-04-27 09:11 39.34882 16.71010 11003 ft 310 kts 141°
2026-04-27 09:11 39.33222 16.72776 10656 ft 309 kts 141°
2026-04-27 09:11 39.31561 16.74541 10272 ft 307 kts 141°
2026-04-27 09:11 39.29919 16.76284 9817 ft 304 kts 141°
2026-04-27 09:12 39.28294 16.78010 9308 ft 302 kts 141°
2026-04-27 09:12 39.26684 16.79724 8842 ft 298 kts 141°
2026-04-27 09:12 39.25084 16.81421 8335 ft 296 kts 141°
2026-04-27 09:12 39.23496 16.83102 7725 ft 297 kts 141°
2026-04-27 09:13 39.21910 16.84783 7092 ft 300 kts 141°
2026-04-27 09:13 39.20289 16.86501 6432 ft 303 kts 141°
2026-04-27 09:13 39.18633 16.88253 5742 ft 304 kts 140°
2026-04-27 09:13 39.17017 16.89964 5088 ft 305 kts 140°
2026-04-27 09:14 39.15380 16.91693 4443 ft 303 kts 140°
2026-04-27 09:14 39.13785 16.93375 4197 ft 287 kts 140°
2026-04-27 09:14 39.12287 16.94955 4062 ft 270 kts 140°
2026-04-27 09:14 39.10873 16.96447 3990 ft 256 kts 140°
2026-04-27 09:15 39.09512 16.97884 3994 ft 253 kts 140°
2026-04-27 09:15 39.08135 16.99336 4004 ft 257 kts 140°
2026-04-27 09:15 39.06761 17.00784 3995 ft 253 kts 140°
2026-04-27 09:15 39.05425 17.02189 3985 ft 242 kts 140°
2026-04-27 09:16 39.04170 17.03508 3995 ft 224 kts 140°
2026-04-27 09:16 39.03005 17.04733 3974 ft 209 kts 140°
2026-04-27 09:16 39.01912 17.05883 3975 ft 200 kts 140°
2026-04-27 09:16 39.00918 17.07107 3981 ft 198 kts 120°
2026-04-27 09:17 39.00616 17.08796 3978 ft 199 kts 82°
2026-04-27 09:17 39.01196 17.10390 3916 ft 199 kts 50°
2026-04-27 09:17 39.02150 17.11695 3823 ft 201 kts 45°
2026-04-27 09:17 39.03172 17.12848 3719 ft 191 kts 27°
2026-04-27 09:18 39.04420 17.13118 3619 ft 179 kts 353°
2026-04-27 09:18 39.05653 17.12851 3591 ft 181 kts 349°
2026-04-27 09:18 39.06887 17.12550 3556 ft 179 kts 349°
2026-04-27 09:18 39.08098 17.12249 3532 ft 176 kts 349°
2026-04-27 09:19 39.09284 17.11952 3520 ft 172 kts 349°
2026-04-27 09:19 39.10469 17.11640 3268 ft 181 kts 343°
2026-04-27 09:19 39.11474 17.10689 2903 ft 181 kts 300°
2026-04-27 09:19 39.11733 17.09139 2623 ft 180 kts 262°
2026-04-27 09:20 39.11454 17.07595 2329 ft 175 kts 244°
2026-04-27 09:20 39.10660 17.06483 2131 ft 168 kts 214°
2026-04-27 09:20 39.09647 17.05924 2047 ft 150 kts 190°
2026-04-27 09:20 39.08615 17.05886 2012 ft 148 kts 173°
2026-04-27 09:21 39.07605 17.06058 1981 ft 146 kts 169°
2026-04-27 09:21 39.06592 17.06291 1777 ft 147 kts 168°
2026-04-27 09:21 39.05596 17.06536 1583 ft 145 kts 168°
2026-04-27 09:21 39.04621 17.06780 1423 ft 143 kts 168°
2026-04-27 09:22 39.03633 17.07030 1220 ft 145 kts 168°
2026-04-27 09:22 39.02664 17.07274 1034 ft 143 kts 168°
2026-04-27 09:22 39.01673 17.07524 829 ft 143 kts 168°
2026-04-27 09:22 39.00705 17.07779 620 ft 139 kts 168°
2026-04-27 09:23 38.99786 17.08006 522 ft 123 kts 166°
2026-04-27 09:23 38.99104 17.08181 528 ft 66 kts 169°
2026-04-27 09:23 38.98935 17.08215 526 ft 29 kts 191°
2026-04-27 09:23 38.98863 17.08235 523 ft 6 kts 60°
2026-04-27 09:24 38.98987 17.08208 527 ft 24 kts 347°
2026-04-27 09:24 38.99098 17.08181 528 ft 24 kts 349°
2026-04-27 09:24 38.99252 17.08133 528 ft 23 kts 330°
2026-04-27 09:24 38.99386 17.07946 525 ft 20 kts 310°
2026-04-27 09:25 38.99440 17.07875 526 ft 13 kts 333°
2026-04-27 09:25 38.99486 17.07854 526 ft 6 kts 323°
2026-04-27 09:25 38.99511 17.07809 526 ft 6 kts 301°
2026-04-27 09:25 38.99519 17.07793 527 ft 0 kts 302°